ELEKTRO-L 3

Last updated on Fri Dec 19 2025 00:02:37 GMT+0000 (Coordinated Universal Time)

1 44903U 19095A 25352.64036181 -.00000072 00000+0 00000+0 0 9998 2 44903 0.0578 141.8328 0002358 140.5314 111.6794 1.00272070 21893
UTC large
Height (km)
Speed (km/s)
/
Latitude / Longitude
Inclination (degrees)
Orbital Period (minutes)
Azimuth
Elevation
Range (km)
Doppler Factor

Next 0 passes for location: London (51.5072 / 0.1276)

Sorry there are no passes over London.